{"data":{"norad_id":67605,"intl_designator":"2026-018S","name":"STARLINK-36281","alt_names":[],"object_type":"PAYLOAD","status":"ACTIVE","operator":null,"country":"US","launch_date":"2026-01-29","launch_site_code":"AFWTR","launch_vehicle":null,"mission":null,"orbit_class":"UNKNOWN","rcs_meters":null,"size_class":null,"mass_kg":null,"dimensions":null,"purposes":["comms"],"wikipedia_slug":null,"has_3d_model":false,"image_url":null,"decayed_at":null,"tle_current":{"epoch":"2026-05-25T04:13:28.656768Z","epoch_age_seconds":56672,"freshness":"FRESH","line1":"1 67605U 26018S   26145.17602612  .00021555  00000+0  66801-3 0  9995","line2":"2 67605  97.2861 210.2717 0001009  96.4299 263.7059 15.33448607 19056","mean_motion":15.33448607,"eccentricity":0.0001009,"inclination_deg":97.2861,"raan_deg":210.2717,"arg_perigee_deg":96.4299,"mean_anomaly_deg":263.7059,"bstar":0.00066801,"rev_number":1905,"period_min":93.905983769301,"perigee_km":464.84191635815,"apogee_km":466.22296885167,"semimajor_km":6843.6694426049,"source":"CELESTRAK","updated_at":"2026-05-25T13:38:21.646695Z"}}}